Sitka, AK

8:25 PM AKDT on April 25, 2018 (GMT -0800)
Sitka Rocky Gutierrez

Weather History for PASI - February, 2012

Change the Weather History Date:

Saturday, February 11, 2012

  Actual Average Record
Temperature  
Mean Temperature 42 °F 37 °F  
Max Temperature 46 °F 41 °F 55 °F (2006)
Min Temperature 37 °F 32 °F 6 °F (1975)
Degree Days  
Heating Degree Days 24 28  
Month to date heating degree days 308  
Moisture  
Dew Point 31 °F    
Average Humidity 68    
Maximum Humidity 93    
Minimum Humidity 36    
Precipitation  
Precipitation 0.20 in 0.22 in 3.39 in (2017)
Month to date precipitation 2.60  
Year to date precipitation 10.98  
Sea Level Pressure  
Sea Level Pressure 29.69 in    
Wind  
Wind Speed 13 mph (ESE)    
Max Wind Speed 25 mph    
Max Gust Speed 34 mph    
Visibility 10 miles    
Events Rain    
T = Trace of Precipitation, MM = Missing Value Source: NWS Daily Summary

Daily Weather History Graph

Daily Weather History Graph

Search for Another Location

Airport or City:

Astronomy

Feb. 11, 2012 Rise Set
Actual Time 7:39 AM AKST 4:52 PM AKST
Civil Twilight 6:59 AM AKST 5:33 PM AKST
Nautical Twilight 6:14 AM AKST 6:18 PM AKST
Astronomical Twilight 5:29 AM AKST 7:02 PM AKST
Moon 11:07 PM AKST (2/11) 8:19 AM AKST (2/11)
Length of Visible Light 10h 34m
Length of Day
9h 12m
Waning Gibbous, 81% of the Moon is Illuminated
Feb 11
Waning Gibbous
Feb 14
Last Quarter
Feb 21
New
Feb 29
First Quarter
Mar 8
Full

Hourly Weather History & Observations

Time (AKST) Temp. Windchill Dew Point Humidity Pressure Visibility Wind Dir Wind Speed Gust Speed Precip Events Conditions
12:53 AM 37.0 °F 31.0 °F 30.9 °F 79% 29.88 in 10.0 mi NNW 8.1 mph - N/A   Clear
1:53 AM 37.0 °F 32.4 °F 32.0 °F 82% 29.88 in 10.0 mi North 5.8 mph - N/A   Clear
2:53 AM 37.0 °F 32.4 °F 30.0 °F 76% 29.86 in 10.0 mi North 5.8 mph - N/A   Clear
3:53 AM 37.9 °F 33.5 °F 30.9 °F 76% 29.85 in 10.0 mi Variable 5.8 mph - N/A   Clear
4:53 AM 45.0 °F 38.2 °F 24.1 °F 44% 29.84 in 10.0 mi ESE 15.0 mph - N/A   Overcast
5:53 AM 44.1 °F 37.7 °F 26.1 °F 49% 29.82 in 10.0 mi ESE 12.7 mph 21.9 mph N/A   Overcast
6:53 AM 45.0 °F 38.2 °F 25.0 °F 46% 29.78 in 10.0 mi ESE 15.0 mph 24.2 mph N/A   Overcast
7:53 AM 46.0 °F 38.3 °F 21.0 °F 37% 29.77 in 10.0 mi ESE 20.7 mph 28.8 mph N/A   Overcast
8:53 AM 46.0 °F 38.8 °F 21.9 °F 39% 29.76 in 10.0 mi ESE 18.4 mph 28.8 mph N/A   Overcast
9:53 AM 46.9 °F - 21.0 °F 36% 29.75 in 10.0 mi ESE 19.6 mph 26.5 mph N/A   Overcast
10:53 AM 46.9 °F - 21.0 °F 36% 29.74 in 10.0 mi SE 17.3 mph 25.3 mph N/A   Overcast
11:53 AM 46.9 °F - 21.0 °F 36% 29.72 in 10.0 mi SE 18.4 mph 27.6 mph N/A   Overcast
12:53 PM 45.0 °F 36.6 °F 27.0 °F 49% 29.68 in 10.0 mi ESE 21.9 mph 32.2 mph N/A   Overcast
1:53 PM 44.1 °F 35.0 °F 30.9 °F 60% 29.66 in 10.0 mi ESE 24.2 mph 31.1 mph 0.00 in Rain Light Rain
2:53 PM 43.0 °F 33.3 °F 32.0 °F 65% 29.64 in 10.0 mi ESE 25.3 mph 33.4 mph 0.00 in Rain Light Rain
3:37 PM 42.8 °F 34.5 °F 33.8 °F 70% 29.61 in 6.0 mi ESE 18.4 mph 34.5 mph 0.02 in Rain Rain
3:53 PM 42.1 °F 32.6 °F 34.0 °F 73% 29.60 in 10.0 mi ESE 23.0 mph 33.4 mph 0.03 in Rain Light Rain
4:53 PM 41.0 °F 33.1 °F 35.1 °F 79% 29.57 in 10.0 mi ESE 15.0 mph - 0.01 in Rain Light Rain
5:53 PM 41.0 °F 32.5 °F 35.1 °F 79% 29.57 in 10.0 mi ESE 17.3 mph 24.2 mph 0.03 in Rain Light Rain
6:53 PM 41.0 °F 32.5 °F 35.1 °F 79% 29.56 in 10.0 mi ESE 17.3 mph 26.5 mph 0.02 in Rain Light Rain
7:53 PM 39.9 °F 30.8 °F 35.1 °F 83% 29.55 in 10.0 mi ESE 18.4 mph 31.1 mph 0.01 in Rain Light Rain
8:48 PM 39.2 °F 31.6 °F 35.6 °F 87% 29.58 in 8.0 mi ESE 12.7 mph - 0.03 in Rain Rain
8:53 PM 39.9 °F 32.1 °F 35.1 °F 83% 29.58 in 8.0 mi ESE 13.8 mph - 0.04 in Rain Light Rain
9:53 PM 39.0 °F 31.8 °F 36.0 °F 89% 29.60 in 10.0 mi ESE 11.5 mph - 0.01 in   Overcast
10:34 PM 39.2 °F 33.0 °F 35.6 °F 87% 29.60 in 9.0 mi ESE 9.2 mph 17.3 mph 0.03 in Rain Light Rain
10:53 PM 39.9 °F 31.1 °F 37.0 °F 89% 29.61 in 10.0 mi South 17.3 mph 25.3 mph 0.03 in   Overcast
11:02 PM 39.2 °F 31.2 °F 37.4 °F 93% 29.61 in 10.0 mi South 13.8 mph 25.3 mph N/A   Overcast
11:53 PM 39.0 °F 30.3 °F 36.0 °F 89% 29.64 in 6.0 mi South 16.1 mph - 0.02 in Rain Light Rain